TimeEDT,TemperatureF,Dew PointF,Humidity,Sea Level PressureIn,VisibilityMPH,Wind Direction,Wind SpeedMPH,Gust SpeedMPH,PrecipitationIn,Events,Conditions,WindDirDegrees,DateUTC
12:10 AM,37.4,32.0,81,29.79,10.0,West,11.5,17.3,N/A,,Overcast,280,2013-03-16 04:10:00
12:30 AM,35.6,32.0,87,29.79,10.0,WNW,9.2,18.4,N/A,,Overcast,290,2013-03-16 04:30:00
12:50 AM,35.6,33.8,93,29.78,10.0,WNW,8.1,-,N/A,,Overcast,290,2013-03-16 04:50:00
1:10 AM,35.6,33.8,93,29.78,7.0,West,6.9,-,N/A,,Overcast,280,2013-03-16 05:10:00
1:30 AM,35.6,35.6,100,29.78,7.0,West,10.4,-,N/A,,Overcast,270,2013-03-16 05:30:00
1:50 AM,33.8,33.8,100,29.77,7.0,West,9.2,-,N/A,,Overcast,260,2013-03-16 05:50:00
2:10 AM,33.8,33.8,100,29.78,5.0,West,10.4,-,N/A,,Overcast,270,2013-03-16 06:10:00
2:30 AM,33.8,33.8,100,29.77,4.0,West,8.1,-,N/A,,Overcast,270,2013-03-16 06:30:00
2:50 AM,33.8,33.8,100,29.76,5.0,West,10.4,-,N/A,,Overcast,260,2013-03-16 06:50:00
3:10 AM,33.8,33.8,100,29.76,5.0,West,10.4,18.4,N/A,,Overcast,260,2013-03-16 07:10:00
3:30 AM,33.8,33.8,100,29.75,2.5,WSW,10.4,19.6,N/A,,Overcast,250,2013-03-16 07:30:00
3:50 AM,35.6,35.6,100,29.73,3.0,West,9.2,-,N/A,,Overcast,270,2013-03-16 07:50:00
4:10 AM,35.6,35.6,100,29.72,5.0,WSW,6.9,-,N/A,,Overcast,250,2013-03-16 08:10:00
4:50 AM,35.6,35.6,100,29.70,10.0,West,5.8,-,N/A,,Overcast,260,2013-03-16 08:50:00
5:10 AM,37.4,37.4,100,29.70,10.0,West,8.1,-,N/A,,Overcast,260,2013-03-16 09:10:00
5:30 AM,37.4,37.4,100,29.70,10.0,West,8.1,-,N/A,,Overcast,260,2013-03-16 09:30:00
5:50 AM,37.4,37.4,100,29.70,10.0,WSW,9.2,-,N/A,,Overcast,250,2013-03-16 09:50:00
6:30 AM,37.4,37.4,100,29.70,10.0,SW,9.2,-,N/A,,Overcast,220,2013-03-16 10:30:00
6:50 AM,37.4,37.4,100,29.70,10.0,WSW,6.9,-,N/A,,Overcast,240,2013-03-16 10:50:00
7:10 AM,37.4,37.4,100,29.70,10.0,SW,10.4,-,N/A,,Overcast,230,2013-03-16 11:10:00
7:30 AM,37.4,37.4,100,29.70,10.0,SW,9.2,-,N/A,,Overcast,220,2013-03-16 11:30:00
7:50 AM,37.4,37.4,100,29.71,10.0,SSW,8.1,-,N/A,,Overcast,210,2013-03-16 11:50:00
8:10 AM,37.4,37.4,100,29.69,10.0,SSW,10.4,-,N/A,,Overcast,200,2013-03-16 12:10:00
8:30 AM,37.4,37.4,100,29.69,7.0,South,8.1,-,N/A,,Overcast,180,2013-03-16 12:30:00
8:50 AM,37.4,37.4,100,29.69,7.0,SSW,9.2,-,N/A,,Overcast,200,2013-03-16 12:50:00
9:10 AM,37.4,37.4,100,29.68,7.0,South,9.2,-,N/A,,Overcast,190,2013-03-16 13:10:00
9:30 AM,39.2,39.2,100,29.67,10.0,South,9.2,-,N/A,,Overcast,190,2013-03-16 13:30:00
9:50 AM,39.2,39.2,100,29.67,10.0,South,11.5,-,N/A,,Overcast,180,2013-03-16 13:50:00
10:10 AM,41.0,41.0,100,29.65,10.0,South,12.7,-,N/A,,Overcast,180,2013-03-16 14:10:00
10:30 AM,41.0,41.0,100,29.65,10.0,SSW,11.5,-,N/A,,Mostly Cloudy,200,2013-03-16 14:30:00
10:50 AM,41.0,41.0,100,29.64,10.0,South,10.4,-,N/A,,Overcast,190,2013-03-16 14:50:00
11:10 AM,42.8,42.8,100,29.63,10.0,South,8.1,-,N/A,,Overcast,190,2013-03-16 15:10:00
11:30 AM,44.6,44.6,100,29.63,10.0,SW,11.5,18.4,N/A,,Overcast,230,2013-03-16 15:30:00
11:50 AM,46.4,46.4,100,29.62,10.0,SW,10.4,18.4,N/A,,Overcast,230,2013-03-16 15:50:00
12:10 PM,46.4,46.4,100,29.62,10.0,SW,12.7,19.6,N/A,,Overcast,230,2013-03-16 16:10:00
12:30 PM,46.4,46.4,100,29.61,10.0,SW,12.7,19.6,N/A,,Overcast,230,2013-03-16 16:30:00
12:50 PM,50.0,46.4,87,29.59,10.0,SW,8.1,18.4,N/A,,Mostly Cloudy,230,2013-03-16 16:50:00
1:10 PM,51.8,46.4,82,29.60,10.0,SW,9.2,16.1,N/A,,Mostly Cloudy,230,2013-03-16 17:10:00
1:30 PM,50.0,44.6,82,29.60,10.0,SW,12.7,25.3,N/A,,Overcast,230,2013-03-16 17:30:00
1:50 PM,48.2,44.6,87,29.61,10.0,WSW,11.5,25.3,N/A,,Overcast,250,2013-03-16 17:50:00
2:10 PM,48.2,46.4,93,29.61,10.0,West,13.8,20.7,N/A,,Overcast,260,2013-03-16 18:10:00
2:30 PM,46.4,46.4,100,29.61,10.0,West,11.5,25.3,N/A,,Overcast,260,2013-03-16 18:30:00
2:50 PM,46.4,46.4,100,29.61,10.0,WSW,9.2,18.4,N/A,,Overcast,250,2013-03-16 18:50:00
3:10 PM,46.4,46.4,100,29.62,2.0,West,8.1,19.6,N/A,,Overcast,260,2013-03-16 19:10:00
3:30 PM,46.4,46.4,100,29.62,1.8,West,8.1,-,N/A,,Overcast,260,2013-03-16 19:30:00
3:50 PM,46.4,46.4,100,29.63,2.5,West,9.2,17.3,N/A,,Overcast,280,2013-03-16 19:50:00
4:10 PM,46.4,46.4,100,29.63,4.0,WNW,8.1,16.1,N/A,,Overcast,290,2013-03-16 20:10:00
4:30 PM,46.4,46.4,100,29.64,5.0,West,10.4,17.3,N/A,,Overcast,280,2013-03-16 20:30:00
4:50 PM,46.4,46.4,100,29.65,4.0,WNW,12.7,19.6,N/A,,Overcast,290,2013-03-16 20:50:00
5:10 PM,44.6,44.6,100,29.66,2.0,NW,11.5,20.7,N/A,,Overcast,310,2013-03-16 21:10:00
5:30 PM,42.8,42.8,100,29.68,0.2,WNW,16.1,21.9,N/A,Fog,Fog,300,2013-03-16 21:30:00
5:50 PM,41.0,41.0,100,29.70,0.2,WNW,12.7,21.9,N/A,Fog,Fog,300,2013-03-16 21:50:00
6:10 PM,39.2,39.2,100,29.70,0.2,NW,9.2,18.4,N/A,Fog,Fog,310,2013-03-16 22:10:00
6:30 PM,37.4,37.4,100,29.71,0.2,WNW,9.2,20.7,N/A,Fog,Fog,300,2013-03-16 22:30:00
6:50 PM,37.4,37.4,100,29.73,0.5,WNW,10.4,16.1,N/A,Fog,Fog,300,2013-03-16 22:50:00
7:10 PM,37.4,37.4,100,29.74,0.8,WNW,8.1,-,N/A,,Overcast,300,2013-03-16 23:10:00
7:30 PM,37.4,37.4,100,29.75,0.5,NW,6.9,17.3,N/A,Fog,Fog,310,2013-03-16 23:30:00
7:50 PM,37.4,37.4,100,29.76,0.2,NW,8.1,17.3,N/A,Fog,Fog,310,2013-03-16 23:50:00
8:10 PM,35.6,35.6,100,29.78,0.2,NW,6.9,-,N/A,Fog,Fog,310,2013-03-17 00:10:00
8:30 PM,35.6,35.6,100,29.80,0.2,NW,5.8,-,N/A,Fog,Fog,310,2013-03-17 00:30:00
10:10 PM,33.8,33.8,100,29.84,0.2,WNW,10.4,-,N/A,Fog,Fog,290,2013-03-17 02:10:00
10:30 PM,33.8,33.8,100,29.85,0.2,WNW,11.5,16.1,N/A,Fog,Fog,300,2013-03-17 02:30:00
10:50 PM,33.8,33.8,100,29.85,0.2,NW,10.4,-,N/A,Fog,Fog,310,2013-03-17 02:50:00
11:10 PM,32.0,32.0,100,29.85,0.2,WNW,6.9,-,N/A,Fog,Fog,300,2013-03-17 03:10:00
11:35 PM,32.0,32.0,100,29.86,0.2,WNW,10.4,-,N/A,Fog,Fog,300,2013-03-17 03:35:00
11:55 PM,32.0,32.0,100,29.85,2.5,WNW,10.4,17.3,N/A,,Overcast,290,2013-03-17 03:55:00